Location: ???????
(38.3360°N, 23.6977°E)
Time: 23:21:40
(UTC+00:00)

OAO 3 Rocket - Pass Details

Date: 17 November 2025
Orbit: 614 x 661 km, 35.0° (Epoch: 13 December)

Event Time Altitude Azimuth Distance (km) Brightness Sun altitude
Rises 17:40:35 0° 269° (W) 2,906 7.7 -29.2°
Reaches altitude 10° 17:43:00 10° 264° (W) 1,990 6.6 -29.7°
Enters shadow 17:45:57 35° 241° (WSW) 1,003 4.5 -30.3°
